tititudorancea.com
Station Historical Data
Daily Summary for January 11, 2019 Units:  English    Metric   Both
« Previous Day
Next Day »
Daily Weekly Monthly Yearly Custom
  High: Low: Average:
Temperature: TemperatureF °F 46.9 °F 70.4 °F
Dew Point: DewpointF °F 33.0 °F 42.9 °F
Humidity: Humidity % 14 % 47 %
Wind Speed: WindSpeedMPH mph 0.0 mph 5.5 mph
Wind Gust: WindSpeedGustMPH mph - -
Wind:- - WSW
Pressure: PressureIn in 29.79 in -
Precipitation: 0.00 in    
Historical Graphs
 
 
Ararat weather Find more about Weather in Ararat, AU


 



 


Tabular Data for January 11, 2019
Time Temperature Dew Point Pressure Wind Wind Speed Wind Gust Humidity Rainfall Rate (Hourly)
TemperatureF °F DewpointF °F PressureIn in Calm     Humidity % HourlyPrecipIn in
00:04 58.6 °F 46.5 °F 30.00 in North 9.2 mph 5.1 mph 64 % 0.00 in
00:09 58.6 °F 46.9 °F 30.00 in South 6.9 mph 5.7 mph 65 % 0.00 in
00:14 58.5 °F 46.8 °F 30.00 in South 5.8 mph 3.0 mph 65 % 0.00 in
00:19 58.5 °F 46.8 °F 30.00 in South 4.6 mph 2.4 mph 65 % 0.00 in
00:24 58.5 °F 46.8 °F 30.00 in South 8.1 mph 5.0 mph 65 % 0.00 in
00:29 58.4 °F 47.1 °F 30.00 in South 5.8 mph 5.4 mph 66 % 0.00 in
00:34 58.4 °F 47.1 °F 30.00 in South 3.5 mph 3.2 mph 66 % 0.00 in
00:39 58.3 °F 47.0 °F 30.00 in South 5.8 mph 5.5 mph 66 % 0.00 in
00:44 58.3 °F 47.0 °F 30.00 in South 9.0 mph 2.8 mph 66 % 0.00 in
00:49 58.2 °F 47.3 °F 30.00 in South 10.4 mph 4.2 mph 67 % 0.00 in
00:54 58.2 °F 47.7 °F 29.99 in SSE 11.5 mph 7.2 mph 68 % 0.00 in
00:59 58.1 °F 48.0 °F 29.99 in SSE 11.5 mph 7.3 mph 69 % 0.00 in
01:04 58.0 °F 47.9 °F 29.99 in South 11.5 mph 7.8 mph 69 % 0.00 in
01:09 57.9 °F 48.2 °F 29.99 in North 11.5 mph 8.1 mph 70 % 0.00 in
01:14 57.7 °F 48.0 °F 29.99 in SSE 11.5 mph 7.3 mph 70 % 0.00 in
01:19 57.6 °F 48.3 °F 29.99 in SSE 10.4 mph 6.3 mph 71 % 0.00 in
01:24 57.4 °F 48.1 °F 29.99 in SSE 12.0 mph 6.1 mph 71 % 0.00 in
01:29 57.2 °F 48.3 °F 29.98 in SSE 11.5 mph 6.9 mph 72 % 0.00 in
01:34 57.0 °F 48.1 °F 29.98 in South 12.7 mph 5.1 mph 72 % 0.00 in
01:39 56.8 °F 48.2 °F 29.98 in South 6.9 mph 3.4 mph 73 % 0.00 in
01:44 56.7 °F 48.1 °F 29.98 in North 9.2 mph 4.6 mph 73 % 0.00 in
01:49 56.6 °F 48.4 °F 29.98 in South 6.9 mph 3.3 mph 74 % 0.00 in
01:54 56.5 °F 48.3 °F 29.98 in South 6.9 mph 1.6 mph 74 % 0.00 in
01:59 56.3 °F 48.1 °F 29.97 in South 6.9 mph 5.1 mph 74 % 0.00 in
02:04 56.2 °F 48.4 °F 29.97 in South 10.4 mph 4.5 mph 75 % 0.00 in
02:09 56.0 °F 48.5 °F 29.97 in North 6.0 mph 3.4 mph 76 % 0.00 in
02:14 55.8 °F 48.7 °F 29.97 in South 6.9 mph 5.6 mph 77 % 0.00 in
02:19 55.6 °F 48.5 °F 29.96 in South 8.1 mph 5.6 mph 77 % 0.00 in
02:24 55.4 °F 48.7 °F 29.97 in South 8.1 mph 6.2 mph 78 % 0.00 in
02:29 55.3 °F 48.6 °F 29.96 in North 6.9 mph 4.0 mph 78 % 0.00 in
02:34 55.1 °F 48.7 °F 29.96 in South 7.0 mph 4.5 mph 79 % 0.00 in
02:39 54.9 °F 48.5 °F 29.96 in South 6.9 mph 4.7 mph 79 % 0.00 in
02:44 54.8 °F 48.4 °F 29.96 in South 4.6 mph 5.0 mph 79 % 0.00 in
02:49 54.6 °F 48.6 °F 29.96 in South 6.9 mph 4.8 mph 80 % 0.00 in
02:54 54.5 °F 48.5 °F 29.96 in South 6.9 mph 5.1 mph 80 % 0.00 in
02:59 54.3 °F 48.3 °F 29.96 in South 5.8 mph 4.2 mph 80 % 0.00 in
03:04 54.1 °F 48.4 °F 29.96 in North 6.9 mph 4.4 mph 81 % 0.00 in
03:09 54.0 °F 48.3 °F 29.96 in South 4.6 mph 4.4 mph 81 % 0.00 in
03:14 53.9 °F 48.2 °F 29.95 in South 5.0 mph 3.3 mph 81 % 0.00 in
03:19 53.7 °F 48.3 °F 29.95 in South 5.8 mph 4.7 mph 82 % 0.00 in
03:24 53.6 °F 48.2 °F 29.95 in South 5.8 mph 4.0 mph 82 % 0.00 in
03:29 53.5 °F 48.1 °F 29.95 in North 5.8 mph 4.2 mph 82 % 0.00 in
03:34 53.4 °F 48.4 °F 29.95 in South 4.6 mph 3.1 mph 83 % 0.00 in
03:39 53.3 °F 48.3 °F 29.95 in North 4.6 mph 2.2 mph 83 % 0.00 in
03:44 53.3 °F 48.3 °F 29.95 in North 3.5 mph 1.3 mph 83 % 0.00 in
03:49 53.2 °F 48.2 °F 29.95 in North 4.6 mph 3.1 mph 83 % 0.00 in
03:54 53.2 °F 48.2 °F 29.95 in South 5.0 mph 4.2 mph 83 % 0.00 in
03:59 53.1 °F 48.1 °F 29.95 in South 4.0 mph 3.3 mph 83 % 0.00 in
04:04 53.0 °F 48.3 °F 29.95 in South 3.5 mph 1.4 mph 84 % 0.00 in
04:09 53.0 °F 48.3 °F 29.95 in South 2.3 mph 1.5 mph 84 % 0.00 in
04:14 52.8 °F 48.1 °F 29.95 in South 4.0 mph 2.4 mph 84 % 0.00 in
04:19 52.6 °F 47.6 °F 29.95 in South 4.6 mph 2.4 mph 83 % 0.00 in
04:24 52.4 °F 47.7 °F 29.95 in South 3.5 mph 2.2 mph 84 % 0.00 in
04:29 52.2 °F 47.5 °F 29.95 in South 3.5 mph 1.2 mph 84 % 0.00 in
04:34 52.1 °F 47.4 °F 29.95 in North 1.2 mph   84 % 0.00 in
04:39 51.8 °F 47.1 °F 29.94 in South 2.3 mph 1.0 mph 84 % 0.00 in
04:44 51.6 °F 46.9 °F 29.94 in Calm     84 % 0.00 in
04:49 51.3 °F 46.6 °F 29.94 in South 2.3 mph   84 % 0.00 in
04:54 51.0 °F 46.3 °F 29.94 in Calm     84 % 0.00 in
04:59 50.7 °F 46.4 °F 29.95 in Calm     85 % 0.00 in
05:04 50.4 °F 46.1 °F 29.94 in Calm     85 % 0.00 in
05:09 50.2 °F 45.9 °F 29.94 in Calm     85 % 0.00 in
05:14 50.0 °F 45.7 °F 29.94 in Calm     85 % 0.00 in
05:19 49.7 °F 45.4 °F 29.94 in Calm     85 % 0.00 in
05:24 49.4 °F 45.4 °F 29.95 in Calm     86 % 0.00 in
05:29 49.1 °F 45.1 °F 29.95 in Calm     86 % 0.00 in
05:34 48.9 °F 44.9 °F 29.95 in Calm     86 % 0.00 in
05:39 48.6 °F 44.6 °F 29.95 in Calm     86 % 0.00 in
05:44 48.5 °F 44.8 °F 29.95 in North 1.2 mph   87 % 0.00 in
05:49 48.3 °F 44.6 °F 29.95 in Calm     87 % 0.00 in
05:54 48.1 °F 44.4 °F 29.95 in Calm     87 % 0.00 in
05:59 47.8 °F 44.1 °F 29.95 in Calm     87 % 0.00 in
06:04 47.6 °F 43.9 °F 29.95 in Calm     87 % 0.00 in
06:09 47.6 °F 44.2 °F 29.95 in Calm     88 % 0.00 in
06:14 47.6 °F 44.2 °F 29.95 in Calm     88 % 0.00 in
06:19 47.6 °F 44.2 °F 29.95 in Calm     88 % 0.00 in
06:24 47.3 °F 43.9 °F 29.95 in Calm     88 % 0.00 in
06:29 47.1 °F 43.7 °F 29.95 in Calm     88 % 0.00 in
06:34 46.9 °F 43.5 °F 29.95 in Calm     88 % 0.00 in
06:39 47.0 °F 43.9 °F 29.95 in Calm     89 % 0.00 in
06:44 47.2 °F 44.4 °F 29.94 in Calm     90 % 0.00 in
06:49 47.6 °F 44.8 °F 29.94 in Calm     90 % 0.00 in
06:54 48.2 °F 45.4 °F 29.94 in Calm     90 % 0.00 in
06:59 48.7 °F 45.9 °F 29.95 in Calm     90 % 0.00 in
07:04 49.3 °F 46.5 °F 29.95 in Calm     90 % 0.00 in
07:09 50.0 °F 47.2 °F 29.95 in Calm     90 % 0.00 in
07:14 50.8 °F 48.0 °F 29.95 in Calm     90 % 0.00 in
07:19 51.5 °F 48.4 °F 29.95 in Calm     89 % 0.00 in
07:24 52.2 °F 48.8 °F 29.95 in Calm     88 % 0.00 in
07:29 53.0 °F 49.2 °F 29.95 in Calm     87 % 0.00 in
07:34 53.7 °F 49.6 °F 29.95 in Calm     86 % 0.00 in
07:39 54.3 °F 49.9 °F 29.95 in Calm     85 % 0.00 in
07:44 55.1 °F 50.0 °F 29.95 in Calm     83 % 0.00 in
07:49 55.8 °F 50.4 °F 29.95 in Calm     82 % 0.00 in
07:54 56.4 °F 50.3 °F 29.95 in Calm     80 % 0.00 in
07:59 57.0 °F 50.5 °F 29.95 in Calm     79 % 0.00 in
08:04 57.9 °F 50.7 °F 29.95 in Calm     77 % 0.00 in
08:09 58.8 °F 51.2 °F 29.95 in Calm     76 % 0.00 in
08:14 59.8 °F 51.5 °F 29.96 in Calm     74 % 0.00 in
08:19 60.1 °F 51.0 °F 29.96 in Calm     72 % 0.00 in
08:24 60.6 °F 50.8 °F 29.96 in Calm     70 % 0.00 in
08:29 61.4 °F 51.1 °F 29.95 in Calm     69 % 0.00 in
08:34 62.0 °F 50.9 °F 29.95 in Calm   0.1 mph 67 % 0.00 in
08:39 62.8 °F 51.3 °F 29.95 in South 1.2 mph   66 % 0.00 in
08:44 63.1 °F 50.3 °F 29.95 in Calm     63 % 0.00 in
08:49 63.7 °F 51.3 °F 29.95 in South 1.0 mph   64 % 0.00 in
08:54 64.9 °F 51.6 °F 29.95 in Calm     62 % 0.00 in
08:59 65.7 °F 50.0 °F 29.95 in Calm     57 % 0.00 in
09:04 66.1 °F 49.9 °F 29.95 in South 2.3 mph   56 % 0.00 in
09:09 66.9 °F 49.2 °F 29.95 in South 3.5 mph 2.1 mph 53 % 0.00 in
09:14 67.6 °F 48.8 °F 29.95 in South 4.6 mph 3.3 mph 51 % 0.00 in
09:19 68.4 °F 48.5 °F 29.95 in South 4.0 mph 3.5 mph 49 % 0.00 in
09:24 69.4 °F 47.1 °F 29.95 in South 8.1 mph 5.0 mph 45 % 0.00 in
09:29 70.3 °F 46.1 °F 29.95 in South 5.8 mph 4.8 mph 42 % 0.00 in
09:34 71.5 °F 47.2 °F 29.95 in South 4.0 mph 3.5 mph 42 % 0.00 in
09:39 72.4 °F 46.0 °F 29.95 in South 5.8 mph 4.4 mph 39 % 0.00 in
09:44 73.1 °F 44.5 °F 29.94 in South 5.8 mph 5.1 mph 36 % 0.00 in
09:49 73.7 °F 43.6 °F 29.94 in West 12.0 mph 8.7 mph 34 % 0.00 in
09:54 74.4 °F 43.4 °F 29.94 in North 8.1 mph 4.7 mph 33 % 0.00 in
09:59 75.0 °F 43.1 °F 29.94 in North 10.4 mph 6.9 mph 32 % 0.00 in
10:04 75.1 °F 41.5 °F 29.94 in North 11.5 mph 6.7 mph 30 % 0.00 in
10:09 75.5 °F 41.9 °F 29.94 in WNW 6.9 mph 5.4 mph 30 % 0.00 in
10:14 75.9 °F 40.4 °F 29.94 in NW 8.1 mph 4.9 mph 28 % 0.00 in
10:19 76.3 °F 41.7 °F 29.93 in NW 5.0 mph 3.6 mph 29 % 0.00 in
10:24 76.7 °F 42.9 °F 29.93 in NW 6.0 mph 3.1 mph 30 % 0.00 in
10:29 77.1 °F 40.5 °F 29.93 in North 9.2 mph 4.6 mph 27 % 0.00 in
10:34 77.6 °F 41.9 °F 29.93 in NW 5.8 mph 5.0 mph 28 % 0.00 in
10:39 78.3 °F 40.6 °F 29.93 in North 11.0 mph 6.5 mph 26 % 0.00 in
10:44 78.1 °F 40.4 °F 29.93 in North 8.1 mph 4.1 mph 26 % 0.00 in
10:49 77.9 °F 40.2 °F 29.93 in NW 8.1 mph 3.5 mph 26 % 0.00 in
10:54 78.3 °F 39.6 °F 29.93 in North 5.8 mph 3.3 mph 25 % 0.00 in
10:59 78.9 °F 40.1 °F 29.93 in NW 9.2 mph 5.5 mph 25 % 0.00 in
11:04 78.8 °F 40.0 °F 29.93 in NNW 9.2 mph 3.5 mph 25 % 0.00 in
11:09 79.3 °F 40.4 °F 29.93 in North 11.5 mph 9.9 mph 25 % 0.00 in
11:14 79.7 °F 39.7 °F 29.93 in North 8.1 mph 5.9 mph 24 % 0.00 in
11:19 79.7 °F 39.7 °F 29.93 in North 8.1 mph 4.5 mph 24 % 0.00 in
11:24 80.0 °F 38.9 °F 29.93 in North 11.5 mph 3.8 mph 23 % 0.00 in
11:29 79.9 °F 38.8 °F 29.93 in North 8.1 mph 6.3 mph 23 % 0.00 in
11:34 80.3 °F 38.0 °F 29.93 in North 11.5 mph 7.8 mph 22 % 0.00 in
11:39 80.7 °F 38.3 °F 29.92 in North 5.0 mph 6.0 mph 22 % 0.00 in
11:44 80.8 °F 37.2 °F 29.92 in NNW 6.0 mph 5.8 mph 21 % 0.00 in
11:49 81.3 °F 33.7 °F 29.92 in North 5.8 mph 4.6 mph 18 % 0.00 in
11:54 82.0 °F 35.7 °F 29.92 in North 4.6 mph 5.0 mph 19 % 0.00 in
11:59 82.1 °F 34.4 °F 29.92 in NNW 8.0 mph 7.4 mph 18 % 0.00 in
12:04 82.0 °F 35.7 °F 29.92 in NW 6.9 mph 5.8 mph 19 % 0.00 in
12:09 81.9 °F 35.6 °F 29.91 in NW 8.1 mph 6.2 mph 19 % 0.00 in
12:14 82.3 °F 37.2 °F 29.91 in NW 9.2 mph 6.1 mph 20 % 0.00 in
12:19 82.9 °F 33.6 °F 29.91 in North 6.0 mph 5.2 mph 17 % 0.00 in
12:24 83.3 °F 35.4 °F 29.91 in North 10.0 mph 5.9 mph 18 % 0.00 in
12:29 83.5 °F 36.9 °F 29.91 in North 9.2 mph 5.3 mph 19 % 0.00 in
12:34 83.0 °F 36.5 °F 29.91 in NNW 10.4 mph 6.2 mph 19 % 0.00 in
12:39 82.7 °F 36.2 °F 29.90 in NNW 5.8 mph 1.2 mph 19 % 0.00 in
12:44 84.1 °F 36.0 °F 29.90 in NNE 12.0 mph 9.3 mph 18 % 0.00 in
12:49 84.2 °F 36.1 °F 29.90 in NNE 11.5 mph 5.1 mph 18 % 0.00 in
12:54 84.7 °F 36.5 °F 29.90 in NNE 11.5 mph 4.7 mph 18 % 0.00 in
12:59 84.8 °F 36.6 °F 29.90 in North 4.6 mph 1.8 mph 18 % 0.00 in
13:04 85.3 °F 35.5 °F 29.90 in NNW 11.5 mph 7.7 mph 17 % 0.00 in
13:09 84.8 °F 33.6 °F 29.90 in North 10.4 mph 9.0 mph 16 % 0.00 in
13:14 85.1 °F 35.4 °F 29.90 in North 11.5 mph 7.4 mph 17 % 0.00 in
13:19 85.5 °F 35.7 °F 29.89 in NNW 11.5 mph 5.0 mph 17 % 0.00 in
13:24 85.5 °F 35.7 °F 29.89 in NNW 12.0 mph 7.7 mph 17 % 0.00 in
13:29 85.6 °F 34.2 °F 29.89 in North 12.7 mph 6.8 mph 16 % 0.00 in
13:34 85.6 °F 35.8 °F 29.89 in North 6.9 mph 1.7 mph 17 % 0.00 in
13:39 86.5 °F 35.0 °F 29.89 in NNW 8.1 mph 5.5 mph 16 % 0.00 in
13:44 86.0 °F 33.0 °F 29.88 in WNW 8.1 mph 6.8 mph 15 % 0.00 in
13:49 85.7 °F 35.9 °F 29.88 in NW 9.2 mph 3.6 mph 17 % 0.00 in
13:54 86.2 °F 34.7 °F 29.88 in North 7.0 mph 7.3 mph 16 % 0.00 in
13:59 86.5 °F 33.4 °F 29.88 in North 5.8 mph 2.4 mph 15 % 0.00 in
14:04 87.5 °F 34.1 °F 29.88 in NW 15.0 mph 9.1 mph 15 % 0.00 in
14:09 86.7 °F 35.1 °F 29.88 in NW 10.4 mph 6.5 mph 16 % 0.00 in
14:14 86.9 °F 35.3 °F 29.87 in WNW 6.0 mph 7.6 mph 16 % 0.00 in
14:19 86.9 °F 35.3 °F 29.87 in NW 11.5 mph 6.8 mph 16 % 0.00 in
14:24 87.1 °F 33.8 °F 29.86 in NW 3.5 mph 3.4 mph 15 % 0.00 in
14:29 87.5 °F 34.1 °F 29.86 in WNW 14.0 mph 8.3 mph 15 % 0.00 in
14:34 88.6 °F 35.0 °F 29.87 in NW 12.7 mph 7.9 mph 15 % 0.00 in
14:39 88.4 °F 33.1 °F 29.87 in North 15.0 mph 9.1 mph 14 % 0.00 in
14:44 88.3 °F 34.8 °F 29.86 in West 11.5 mph 5.9 mph 15 % 0.00 in
14:49 88.4 °F 34.9 °F 29.86 in West 14.0 mph 9.7 mph 15 % 0.00 in
14:54 88.8 °F 35.2 °F 29.86 in NW 13.8 mph 11.7 mph 15 % 0.00 in
14:59 88.4 °F 34.9 °F 29.86 in WNW 13.8 mph 12.9 mph 15 % 0.00 in
15:04 88.2 °F 34.7 °F 29.85 in NW 8.1 mph 4.9 mph 15 % 0.00 in
15:09 88.3 °F 36.4 °F 29.86 in WNW 13.8 mph 7.5 mph 16 % 0.00 in
15:14 88.2 °F 37.9 °F 29.85 in North 14.0 mph 9.8 mph 17 % 0.00 in
15:19 88.7 °F 38.3 °F 29.85 in NW 8.1 mph 4.1 mph 17 % 0.00 in
15:24 89.6 °F 37.5 °F 29.85 in NNW 12.0 mph 8.6 mph 16 % 0.00 in
15:29 89.2 °F 37.1 °F 29.85 in North 10.4 mph 7.2 mph 16 % 0.00 in
15:34 88.9 °F 36.9 °F 29.85 in North 13.8 mph 8.9 mph 16 % 0.00 in
15:39 88.9 °F 36.9 °F 29.84 in WSW 8.1 mph 7.5 mph 16 % 0.00 in
15:44 89.2 °F 37.1 °F 29.85 in NNW 11.5 mph 6.8 mph 16 % 0.00 in
15:49 88.9 °F 36.9 °F 29.84 in NNE 10.4 mph 4.8 mph 16 % 0.00 in
15:54 89.4 °F 37.3 °F 29.84 in North 11.5 mph 6.9 mph 16 % 0.00 in
15:59 89.6 °F 37.5 °F 29.83 in NNW 13.0 mph 10.5 mph 16 % 0.00 in
16:04 89.7 °F 37.5 °F 29.84 in NW 11.5 mph 5.1 mph 16 % 0.00 in
16:09 90.1 °F 37.9 °F 29.84 in North 11.5 mph 3.5 mph 16 % 0.00 in
16:14 90.2 °F 37.9 °F 29.83 in NNE 4.0 mph 5.1 mph 16 % 0.00 in
16:19 90.4 °F 38.1 °F 29.83 in WNW 12.7 mph 6.9 mph 16 % 0.00 in
16:24 90.3 °F 36.4 °F 29.82 in West 8.1 mph 5.3 mph 15 % 0.00 in
16:29 90.7 °F 38.3 °F 29.82 in WNW 13.8 mph 11.2 mph 16 % 0.00 in
16:34 90.3 °F 38.0 °F 29.82 in NW 16.1 mph 9.2 mph 16 % 0.00 in
16:39 90.0 °F 37.8 °F 29.82 in NW 11.5 mph 10.7 mph 16 % 0.00 in
16:44 90.1 °F 37.9 °F 29.82 in NW 11.0 mph 9.0 mph 16 % 0.00 in
16:49 90.1 °F 37.9 °F 29.81 in WNW 3.5 mph 1.4 mph 16 % 0.00 in
16:54 90.9 °F 38.5 °F 29.82 in West 12.7 mph 12.2 mph 16 % 0.00 in
16:59 90.7 °F 38.3 °F 29.82 in WSW 12.7 mph 8.5 mph 16 % 0.00 in
17:00 90.7 °F 39.9 °F 29.82 in WNW 11.5 mph 5.5 mph 17 % 0.00 in
19:04 90.9 °F 38.5 °F 29.79 in NW 6.0 mph 5.3 mph 16 % 0.00 in
19:05 90.9 °F 38.5 °F 29.79 in NW 8.1 mph 6.8 mph 16 % 0.00 in
19:20 90.9 °F 38.5 °F 29.79 in NNW 5.0 mph 10.0 mph 16 % 0.00 in
19:25 90.9 °F 40.1 °F 29.79 in NW 7.0 mph 14.0 mph 17 % 0.00 in
19:30 90.8 °F 39.9 °F 29.79 in WNW 9.0 mph 12.0 mph 17 % 0.00 in
19:35 90.5 °F 39.8 °F 29.79 in WNW 6.0 mph 12.0 mph 17 % 0.00 in
19:40 89.9 °F 39.3 °F 29.79 in WNW 7.0 mph 10.0 mph 17 % 0.00 in
19:45 89.3 °F 38.8 °F 29.80 in NW 7.0 mph 9.0 mph 17 % 0.00 in
19:50 89.2 °F 40.1 °F 29.80 in NW 7.0 mph 12.0 mph 18 % 0.00 in
19:55 89.1 °F 40.0 °F 29.80 in NW 6.0 mph 10.0 mph 18 % 0.00 in
20:00 89.0 °F 40.0 °F 29.80 in NW 6.0 mph 12.0 mph 18 % 0.00 in
20:05 89.0 °F 40.0 °F 29.80 in NW 3.0 mph 8.0 mph 18 % 0.00 in
20:10 89.1 °F 40.1 °F 29.80 in NW 3.0 mph 6.0 mph 18 % 0.00 in
20:15 89.2 °F 40.2 °F 29.80 in WNW 2.0 mph 5.0 mph 18 % 0.00 in
20:20 89.3 °F 40.2 °F 29.80 in NW 3.0 mph 5.0 mph 18 % 0.00 in
20:25 89.2 °F 40.1 °F 29.80 in NW 3.0 mph 5.0 mph 18 % 0.00 in
20:30 89.0 °F 39.9 °F 29.80 in NW 1.0 mph 4.0 mph 18 % 0.00 in
20:35 88.7 °F 41.1 °F 29.80 in NW 1.0 mph 3.0 mph 19 % 0.00 in
20:40 88.3 °F 40.8 °F 29.80 in Calm   3.0 mph 19 % 0.00 in
20:45 87.8 °F 41.8 °F 29.80 in Calm   3.0 mph 20 % 0.00 in
20:50 87.4 °F 41.4 °F 29.80 in Calm   1.0 mph 20 % 0.00 in
20:55 86.7 °F 43.3 °F 29.81 in Calm     22 % 0.00 in
21:00 85.2 °F 42.0 °F 29.81 in Calm     22 % 0.00 in
21:05 83.8 °F 43.2 °F 29.81 in Calm     24 % 0.00 in
21:10 82.4 °F 43.1 °F 29.80 in Calm     25 % 0.00 in
21:15 81.5 °F 44.3 °F 29.81 in Calm     27 % 0.00 in
21:20 80.0 °F 44.9 °F 29.81 in NW 2.0 mph 3.0 mph 29 % 0.00 in
21:25 79.3 °F 44.3 °F 29.81 in Calm   2.0 mph 29 % 0.00 in
21:30 78.9 °F 45.7 °F 29.81 in Calm   2.0 mph 31 % 0.00 in
21:35 77.9 °F 44.0 °F 29.81 in WNW 2.0 mph 2.0 mph 30 % 0.00 in
21:45 77.0 °F 44.9 °F 29.81 in Calm   2.0 mph 32 % 0.00 in
21:50 76.8 °F 43.9 °F 29.82 in Calm   1.0 mph 31 % 0.00 in
21:55 76.4 °F 45.1 °F 29.82 in Calm     33 % 0.00 in
22:00 75.6 °F 45.3 °F 29.82 in Calm     34 % 0.00 in
22:05 75.2 °F 46.4 °F 29.82 in Calm     36 % 0.00 in
22:10 74.7 °F 46.0 °F 29.82 in Calm     36 % 0.00 in
22:20 73.9 °F 45.3 °F 29.82 in NW 2.0 mph 6.0 mph 36 % 0.00 in
22:25 74.2 °F 43.3 °F 29.82 in SW 5.0 mph 13.0 mph 33 % 0.00 in
22:30 75.4 °F 43.4 °F 29.82 in SSW 3.0 mph 9.0 mph 32 % 0.00 in
22:35 75.7 °F 43.7 °F 29.82 in SSW 5.0 mph 7.0 mph 32 % 0.00 in
22:45 75.6 °F 44.5 °F 29.82 in SSW 5.0 mph 9.0 mph 33 % 0.00 in
22:50 75.5 °F 44.4 °F 29.82 in SSW 1.0 mph 4.0 mph 33 % 0.00 in
22:55 75.1 °F 44.0 °F 29.82 in SSW 1.0 mph 2.0 mph 33 % 0.00 in
23:04 74.2 °F 44.0 °F 29.82 in SSW 3.0 mph 1.7 mph 34 % 0.00 in
23:09 73.8 °F 44.4 °F 29.82 in SSW 3.5 mph 1.3 mph 35 % 0.00 in
23:14 73.4 °F 44.1 °F 29.82 in SSW 2.3 mph 1.2 mph 35 % 0.00 in
23:19 72.9 °F 44.4 °F 29.82 in SSW 2.3 mph 1.9 mph 36 % 0.00 in
23:24 72.6 °F 44.1 °F 29.82 in SSW 1.2 mph   36 % 0.00 in
23:29 72.3 °F 44.6 °F 29.82 in Calm     37 % 0.00 in
23:34 71.7 °F 44.7 °F 29.82 in Calm     38 % 0.00 in
23:39 70.7 °F 44.5 °F 29.82 in Calm     39 % 0.00 in
23:44 69.7 °F 45.6 °F 29.82 in SSW 3.5 mph 2.8 mph 42 % 0.00 in
23:49 69.6 °F 44.8 °F 29.83 in SSW 2.3 mph 2.1 mph 41 % 0.00 in
23:54 69.7 °F 44.9 °F 29.82 in SSW 2.3 mph 1.4 mph 41 % 0.00 in
23:59 69.7 °F 44.9 °F 29.82 in SSW 1.2 mph 0.1 mph 41 % 0.00 in
Ararat Weather
Compliments of Weather Underground - 2 mb
Click here to send mail.


ABOUT

Live weather data from Ararat, Victoria, Australia, 3377
Data uploaded from Cumulus every 5 minutes to Weather Underground.
This site then downloads the raw data for formatting and display.
Metric and imperial data can be displayed. Graphs and historical data available.
Includes Sun and Moon times and rain image live from BOM.

Check out Ararat Weather on Facebook, Twitter and Google +

Help support ongoing costs by checking out the ads





Follow @AraratWeather